Regional Weather Roundup
Issued by NWS

Home | Current Version | Previous Version | Text Only | Print | Product List | Glossary Off
Versions: 1 2 3 4 5 6 7 8 9 10 11 12 13 14 15 16 17 18 19 20 21 22 23 24 25 26 27 28 29 30 31 32 33 34 35 36 37 38 39 40 41 42 43 44 45 46 47 48 49 50

000
ASUS43 KMKX 011300
RWRWI

WISCONSIN REGIONAL WEATHER ROUNDUP
NATIONAL WEATHER SERVICE MILWAUKEE/SULLIVAN WI
800 AM CDT FRI AUG 01 2014

NOTE: "FAIR" INDICATES FEW OR NO CLOUDS BELOW 12,000 FEET WITH NO
SIGNIFICANT WEATHER AND/OR OBSTRUCTIONS TO VISIBILITY.

WIZ001-002-006>008-014>016-023>028-011400-
NORTHWEST WISCONSIN

CITY           SKY/WX    TMP DP  RH WIND       PRES   REMARKS
SUPERIOR ARPT  SUNNY     57  54  90 NE5       30.07R
ASHLAND        SUNNY     58  56  93 CALM      30.06R
HAYWARD        MOSUNNY   57  56  96 CALM      30.06S
SIREN          SUNNY     59  58  96 CALM      30.05S
RICE LAKE      SUNNY     61  59  95 CALM      30.07R FOG
LADYSMITH      FOG       58  57  97 CALM      30.07S VSB 3/4
EAU CLAIRE     NOT AVBL
MENOMONIE      SUNNY     64  60  87 CALM      30.06R
NEW RICHMOND   SUNNY     64  61  92 CALM      30.06R
OSCEOLA        SUNNY     61  61 100 CALM      30.08R FOG
$$

WIZ003>005-009-010-017-018-011400-
NORTH CENTRAL WISCONSIN

CITY           SKY/WX    TMP DP  RH WIND       PRES   REMARKS
WOODRUFF       SUNNY     57  51  81 CALM      30.07R
RHINELANDER    FOG       59  58  96 CALM      30.08R VSB 1/4
EAGLE RIVER    SUNNY     54  54 100 CALM      30.06R FOG
LAND O LAKES   SUNNY     52  52 100 CALM      30.08R FOG
PHILLIPS       FOG       56  56 100 CALM      30.06S VSB 1/4
TOMAHAWK       SUNNY     53  53  97 CALM      30.08R FOG
MEDFORD        SUNNY     58  58 100 CALM      30.07R FOG
MERRILL        FOG       54  54 100 CALM      30.07R VSB 3/4
$$

WIZ029-030-035-036-043>047-011400-
CENTRAL WISCONSIN

CITY           SKY/WX    TMP DP  RH WIND       PRES   REMARKS
WAUSAU         MOSUNNY   62  60  93 CALM      30.05S FOG
MOSINEE        PTSUNNY   61  61 100 CALM      30.07R
MARSHFIELD     PTSUNNY   66  60  81 W3        30.06R
STEVENS POINT  SUNNY     58  57  95 CALM      30.06S
WAUPACA        SUNNY     64  61  91 CALM      30.06S
WAUTOMA        NOT AVBL
WISC RAPIDS    SUNNY     65  60  84 W3        30.08R
CAMP DOUGLAS   NOT AVBL
$$

WIZ011>013-019>022-031-037>040-048>050-011400-
NORTHEAST WISCONSIN

CITY           SKY/WX    TMP DP  RH WIND       PRES   REMARKS
ANTIGO         FOG       55  55 100 CALM      30.07R VSB 3/4
STURGEON BAY   SUNNY     64  61  88 CALM      30.05R
GREEN BAY      SUNNY     64  61  90 W5        30.06R FOG
MANITOWOC      NOT AVBL
APPLETON       PTSUNNY   64  61  88 CALM      30.06R
CLINTONVILLE   SUNNY     61  59  94 CALM      30.05S
OSHKOSH        SUNNY     66  60  81 SW3       30.05R
$$

WIZ032>034-041-042-053>061-011400-
SOUTHWEST WISCONSIN

CITY           SKY/WX    TMP DP  RH WIND       PRES   REMARKS
LA CROSSE      MOSUNNY   66  62  87 S5        30.06S
SPARTA         SUNNY     60  58  93 CALM      30.08R
VIROQUA        FAIR      63  59  88 CALM      30.09R
BOSCOBEL       MOSUNNY   61  58  90 CALM      30.08R
PRAIRIE DU CHI FOG       60  58  95 CALM      30.07R VSB<1/4
PLATTEVILLE    FAIR      63  61  94 S3        30.09S
$$

WIZ056-057-062-063-064-067-068-011400-
SOUTH CENTRAL WISCONSIN

CITY           SKY/WX    TMP DP  RH WIND       PRES   REMARKS
BARABOO/DELLS  SUNNY     63  58  83 CALM      30.07R
LONE ROCK      PTSUNNY   61  58  90 CALM      30.08R FOG
WATERTOWN      SUNNY     62  60  94 CALM      30.07R
MADISON        SUNNY     68  60  75 CALM      30.07R
MIDDLETON      FAIR      66  61  84 CALM      30.08R
MONROE         SUNNY     64  59  82 W3        30.08R
JANESVILLE     SUNNY     64  61  88 CALM      30.08R
$$

WIZ051-052-058>065-066-070>072-011400-
SOUTHEAST WISCONSIN

CITY           SKY/WX    TMP DP  RH WIND       PRES   REMARKS
MILWAUKEE      MOSUNNY   69  58  67 W5        30.07R
WAUKESHA       SUNNY     64  59  82 CALM      30.09R
MILWAUKEE/TIMM SUNNY     66  57  72 W3        30.08R
RACINE         SUNNY     68  59  73 W6        30.09R
BURLINGTON     SUNNY     61  58  91 CALM      30.08R
KENOSHA        SUNNY     66  61  84 W6        30.08S
FOND DU LAC    SUNNY     66  59  78 CALM      30.06R
SHEBOYGAN      SUNNY     66  61  84 SW5       30.06R
WEST BEND      SUNNY     63  59  88 CALM      30.07R
JUNEAU         SUNNY     62  59  88 CALM      30.08R
$$

LSZ147-162-011400-
LAKE SUPERIOR

STATION/POSITION TIME  TEMP    WIND        PRES    WAVE
                       AIR SEA DIR/SP/G            HT/PER
                 (UTC) (F)     (DEG/KT/KT) (MB)    (FT/S)
W MID LAKE BUOY  1150   47 43  360/  6/  6 1017.7R   0
PORT WING        1200   55     110/  1/  2 1017.9R
SAXON HARBOR     1200          210/  2/  4 1017.6R
$$

LMZ867-665-643>646-011400-
LAKE MICHIGAN

STATION/POSITION TIME  TEMP    WIND        PRES    WAVE
                       AIR SEA DIR/SP/G            HT/PER
                 (UTC) (F)     (DEG/KT/KT) (MB)    (FT/S)
N MID LAKE BUOY  1150   58 54  210/  2/  2 1016.5R   1
NORTHPORT PIER   1200   62      CALM  /  1 1016.9R
SISTER BAY       1110   62        CALM       N/A
ALGOMA LAKESHORE 1221          320/  7/  8   N/A
KEWAUNEE LAKESHO 1200   60     300/  5/  6 1016.1R
SHEBOYGAN LAKESH 1200   68     260/  9/ 10 1017.2R
PORT WASHINGTON  1240   70     290/  5/  8 1018.3R
ATWATER BUOY     1200   67     250/  8     1018.6R
MILWAUKEE LAKESH 1200   68     280/  5/  6   N/A
S MID LAKE BUOY  1150   64 62  240/  6/  6 1018.0R   0
KENOSHA   LAKESH 1200   67     260/  7/  8 1017.9R
$$

TC  - TEMPERATURE IN CELSIUS
VSB - VISIBILITY IN STATUTE MILES
WCI - WIND CHILL INDEX
HX  - HEAT INDEX




USA.gov is the U.S. government's official web portal to all federal, state and local government web resources and services.